<?xml version="1.0" encoding="UTF-8" standalone="no" ?>
<gpx xmlns="http://www.topografix.com/GPX/1/1" xmlns:xsi="http://www.w3.org/2001/XMLSchema-instance" xsi:schemaLocation="http://www.topografix.com/GPX/1/1 http://www.topografix.com/GPX/1/1/gpx.xsd" version="1.1" creator="VisuGPX - https://www.visugpx.com">
  <metadata>
    <name>mega parcours rouge</name>
  </metadata>
  <trk>
    <name><![CDATA[mega parcours rouge_2]]></name>
    <trkseg>
      <trkpt lat="47.589" lon="6.62371">
        <ele>430</ele>
        <time>2020-12-10T18:42:17+01:00</time>
      </trkpt>
      <trkpt lat="47.589" lon="6.62371">
        <ele>430</ele>
        <time>2020-12-10T18:42:17+01:00</time>
      </trkpt>
      <trkpt lat="47.58923" lon="6.62268">
        <ele>437</ele>
        <time>2020-12-10T18:42:20+01:00</time>
      </trkpt>
      <trkpt lat="47.58871" lon="6.62186">
        <ele>439</ele>
        <time>2020-12-10T18:42:23+01:00</time>
      </trkpt>
      <trkpt lat="47.58865" lon="6.62118">
        <ele>443</ele>
        <time>2020-12-10T18:42:26+01:00</time>
      </trkpt>
      <trkpt lat="47.58796" lon="6.6207">
        <ele>444</ele>
        <time>2020-12-10T18:42:29+01:00</time>
      </trkpt>
      <trkpt lat="47.5879" lon="6.61899">
        <ele>460</ele>
        <time>2020-12-10T18:42:32+01:00</time>
      </trkpt>
      <trkpt lat="47.58767" lon="6.61658">
        <ele>452</ele>
        <time>2020-12-10T18:42:35+01:00</time>
      </trkpt>
      <trkpt lat="47.58666" lon="6.61401">
        <ele>437</ele>
        <time>2020-12-10T18:42:38+01:00</time>
      </trkpt>
      <trkpt lat="47.58486" lon="6.61092">
        <ele>427</ele>
        <time>2020-12-10T18:42:42+01:00</time>
      </trkpt>
      <trkpt lat="47.58415" lon="6.60753">
        <ele>426</ele>
        <time>2020-12-10T18:42:45+01:00</time>
      </trkpt>
      <trkpt lat="47.58554" lon="6.60714">
        <ele>426</ele>
        <time>2020-12-10T18:42:48+01:00</time>
      </trkpt>
      <trkpt lat="47.58609" lon="6.60667">
        <ele>418</ele>
        <time>2020-12-10T18:42:52+01:00</time>
      </trkpt>
      <trkpt lat="47.58728" lon="6.60646">
        <ele>405</ele>
        <time>2020-12-10T18:42:55+01:00</time>
      </trkpt>
      <trkpt lat="47.58815" lon="6.6062">
        <ele>402</ele>
        <time>2020-12-10T18:42:58+01:00</time>
      </trkpt>
      <trkpt lat="47.58945" lon="6.60688">
        <ele>375</ele>
        <time>2020-12-10T18:43:02+01:00</time>
      </trkpt>
      <trkpt lat="47.59006" lon="6.60633">
        <ele>371</ele>
        <time>2020-12-10T18:43:05+01:00</time>
      </trkpt>
      <trkpt lat="47.59084" lon="6.60543">
        <ele>370</ele>
        <time>2020-12-10T18:43:09+01:00</time>
      </trkpt>
      <trkpt lat="47.59104" lon="6.6044">
        <ele>363</ele>
        <time>2020-12-10T18:43:12+01:00</time>
      </trkpt>
      <trkpt lat="47.59156" lon="6.60371">
        <ele>360</ele>
        <time>2020-12-10T18:43:15+01:00</time>
      </trkpt>
      <trkpt lat="47.59232" lon="6.60388">
        <ele>356</ele>
        <time>2020-12-10T18:43:19+01:00</time>
      </trkpt>
      <trkpt lat="47.59304" lon="6.60328">
        <ele>345</ele>
        <time>2020-12-10T18:43:23+01:00</time>
      </trkpt>
      <trkpt lat="47.59347" lon="6.60276">
        <ele>338</ele>
        <time>2020-12-10T18:43:26+01:00</time>
      </trkpt>
      <trkpt lat="47.59394" lon="6.60225">
        <ele>330</ele>
        <time>2020-12-10T18:43:30+01:00</time>
      </trkpt>
      <trkpt lat="47.59421" lon="6.60203">
        <ele>330</ele>
        <time>2020-12-10T18:43:33+01:00</time>
      </trkpt>
    </trkseg>
  </trk>
</gpx>